Weather History for Norfolk, NE

Change the Weather History Date:

Wednesday, February 13, 2013

  Actual Average Record
Temperature  
Mean Temperature 41 °F 26 °F  
Max Temperature 56 °F 36 °F 70 °F (1934)
Min Temperature 25 °F 16 °F -29 °F (1905)
Degree Days  
Heating Degree Days 24 39  
Month to date heating degree days 407 523  
Since 1 July heating degree days 4289 4545  
Cooling Degree Days 0 0  
Month to date cooling degree days 0 0  
Year to date cooling degree days 0 0  
Moisture  
Dew Point 24 °F    
Average Humidity 55    
Maximum Humidity 81    
Minimum Humidity 28    
Precipitation  
Precipitation 0.00 in 0.03 in 1.50 in (1919)
Month to date precipitation 0.06 0.33  
Year to date precipitation 0.30 0.92  
Snow  
Snow 0.00 in 0.20 in - ()
Month to date snowfall 0.1 2.8  
Since 1 July snowfall 7.9 20.1  
Snow Depth 0.00 in    
Sea Level Pressure  
Sea Level Pressure 29.81 in    
Wind  
Wind Speed 11 mph (West)    
Max Wind Speed 24 mph    
Max Gust Speed 29 mph    
Visibility 10 miles    
Events      
T = Trace of Precipitation, MM = Missing Value Source: NWS Daily Summary

Daily Weather History Graph

Daily Weather History Graph

Search for Another Location

Airport:

Trip Planner

Search our weather history database for the weather conditions in past years. The results will help you decide how hot, cold, wet, or windy it might be!

Date:

Astronomy

Feb. 13, 2013 Rise Set
Actual Time 7:27 AM CST 6:00 PM CST
Civil Twilight 6:59 AM CST 6:29 PM CST
Nautical Twilight 6:26 AM CST 7:02 PM CST
Astronomical Twilight 5:54 AM CST 7:34 PM CST
Moon 8:53 AM CST (2/13) 10:09 PM CST (2/13)
Length of Visible Light 11h 30m
Length of Day
10h 32m
Waxing Crescent, 14% of the Moon is Illuminated
Feb 13
Waxing Crescent
Feb 17
First Quarter
Feb 25
Full
Mar 4
Last Quarter
Mar 11
New

Hourly Weather History & Observations

Time (CST) Temp. Windchill Dew Point Humidity Pressure Visibility Wind Dir Wind Speed Gust Speed Precip Events Conditions
12:56 AM 27.0 °F 20.5 °F 21.9 °F 81% 29.92 in 10.0 mi WSW 5.8 mph - N/A   Clear
1:56 AM 26.1 °F 18.4 °F 21.0 °F 81% 29.91 in 10.0 mi WSW 6.9 mph - N/A   Clear
2:56 AM 28.0 °F 20.0 °F 21.9 °F 78% 29.90 in 10.0 mi West 8.1 mph - N/A   Mostly Cloudy
3:56 AM 28.0 °F 20.8 °F 21.9 °F 78% 29.88 in 10.0 mi West 6.9 mph - N/A   Mostly Cloudy
4:56 AM 26.1 °F - 21.0 °F 81% 29.87 in 10.0 mi Calm Calm - N/A   Partly Cloudy
5:56 AM 27.0 °F 21.6 °F 21.0 °F 78% 29.87 in 10.0 mi West 4.6 mph - N/A   Partly Cloudy
6:56 AM 28.0 °F 19.3 °F 21.0 °F 75% 29.87 in 10.0 mi West 9.2 mph - N/A   Clear
7:56 AM 27.0 °F 20.5 °F 21.0 °F 78% 29.87 in 10.0 mi West 5.8 mph - N/A   Clear
8:56 AM 34.0 °F 27.2 °F 24.1 °F 67% 29.86 in 10.0 mi West 8.1 mph - N/A   Clear
9:56 AM 39.0 °F 32.3 °F 25.0 °F 57% 29.85 in 10.0 mi West 10.4 mph - N/A   Clear
10:56 AM 45.0 °F 39.7 °F 24.1 °F 44% 29.81 in 10.0 mi WSW 10.4 mph - N/A   Clear
11:56 AM 50.0 °F - 23.0 °F 35% 29.80 in 10.0 mi West 12.7 mph - N/A   Clear
12:56 PM 52.0 °F - 21.9 °F 31% 29.77 in 10.0 mi West 17.3 mph - N/A   Clear
1:56 PM 54.0 °F - 21.9 °F 29% 29.74 in 10.0 mi WSW 15.0 mph 23.0 mph N/A   Partly Cloudy
2:56 PM 54.0 °F - 21.9 °F 29% 29.71 in 10.0 mi West 17.3 mph 26.5 mph N/A   Partly Cloudy
3:56 PM 52.0 °F - 24.1 °F 34% 29.72 in 10.0 mi WNW 19.6 mph - N/A   Mostly Cloudy
4:56 PM 50.0 °F - 26.1 °F 39% 29.73 in 10.0 mi WNW 18.4 mph 26.5 mph N/A   Scattered Clouds
5:56 PM 48.0 °F - 27.0 °F 44% 29.74 in 10.0 mi West 8.1 mph - N/A   Mostly Cloudy
6:56 PM 46.0 °F 41.0 °F 28.0 °F 50% 29.75 in 10.0 mi West 10.4 mph - N/A   Overcast
7:56 PM 42.1 °F 37.1 °F 27.0 °F 55% 29.77 in 10.0 mi West 8.1 mph - N/A   Mostly Cloudy
8:56 PM 43.0 °F 35.7 °F 28.0 °F 56% 29.77 in 10.0 mi West 15.0 mph - N/A   Overcast
9:56 PM 39.9 °F 32.9 °F 28.0 °F 63% 29.79 in 10.0 mi West 11.5 mph - N/A   Overcast
10:56 PM 39.0 °F 31.4 °F 28.0 °F 65% 29.81 in 10.0 mi West 12.7 mph - N/A   Scattered Clouds
11:56 PM 39.0 °F 31.0 °F 28.9 °F 67% 29.82 in 10.0 mi West 13.8 mph - N/A   Clear